Location: *
(40.4270°N, 9.4940°E)
Time: 01:54:47
(UTC+02:00)

Okean 2 - Visible Passes

Search period start: 29 September 2016 00:00
Search period end: 09 October 2016 00:00
Orbit: 562 x 580 km, 82.5° (Epoch: 27 September)

Date Brightness Start Highest point End Pass type
(mag) Time Alt. Az. Time Alt. Az. Time Alt. Az.
29 Sep 5.0 04:45:05 31° ESE 04:45:36 32° E 04:49:18 10° NNE visible
29 Sep 4.9 06:21:18 16° W 06:22:31 18° WNW 06:25:28 10° NNW visible
30 Sep 4.6 04:48:15 40° ENE 04:48:15 40° ENE 04:51:42 10° NNE visible
30 Sep 5.1 06:24:28 14° WNW 06:24:51 14° WNW 06:27:11 10° NW visible
01 Oct 4.7 04:51:17 38° NE 04:51:17 38° NE 04:54:03 10° NNE visible
01 Oct 5.4 06:27:30 11° WNW 06:27:30 11° WNW 06:28:31 10° NW visible
02 Oct 5.0 04:54:15 29° NNE 04:54:15 29° NNE 04:56:20 10° NNE visible
03 Oct 5.4 04:57:07 21° N 04:57:07 21° N 04:58:35 10° N visible
04 Oct 5.7 04:59:55 16° N 04:59:55 16° N 05:00:46 10° N visible
05 Oct 6.0 05:02:39 12° N 05:02:39 12° N 05:02:56 10° N visible
